Showing default

HULIANWANG DIGUI-33, 64286

Orbit data source: Space-Track

HULIANWANG DIGUI-33, 64286 is a payload satellite owned by Zhongguo Xingwang (CN) in LEO that was launched on Thu, 05 Jun 2025 UTC via a CHANG ZHENG 6A launch vehicle from the Taiyaun Space Center, China (TSC). Payload-class satellites include a variety of spacecraft equipped with specific instruments for various scientific and technological missions. These include communications satellites like Starlink; space stations such as the ISS; scientific satellites like the Hubble; Earth observation satellites from companies like Planet Labs, Umbra, and HawkEye 360; GPS; miniature CubeSats for education and research; and military/defense satellites.

Loading next visibility...
Identifier
64286, 2025-121D
Orbit
LEO
Last TLE update
9 hours ago
Origin
Flag of CNZXW (CN / PRC)
Manufacturer
CAST?
Mission
Operational spacecraft
Bus & Motor
Unknown
Mass
~800 kg wet, ~800 kg dry
Launch date (UTC)
2025-06-05 (2 weeks ago)
Launch vehicle
CHANG ZHENG 6A
Launch site
Taiyaun Space Center, China (TSC)
Object type
Payload
Rocket body
Debris
Shape & HBR
Unknown
Radar Cross Section
Large (>1 m²)

Expand to show TLE details & history

TLE from 9 hours ago
0 HULIANWANG DIGUI-33
1 64286U 25121D   25169.92135470 -.00000140  00000-0 -18149-3 0  9994
2 64286  86.5014 137.8825 0008612 168.4858 191.6500 13.69114906  1792
Epoch: 2025-06-18T22:06Z
TLE epoch observation values (Epoch: 2025-06-18T22:06:45.046Z)
Latitude
-0°
Longitude
-101.20165°
Altitude
1,011.936 km
Speed
7.343 km/s
True Right ascension
09h 11m 31s
True Declination
0° 00' 00"
Sunlit
Object was in daylight at epoch
Visualization orbit readout
Latitude
-27.40796°
Longitude
-103.13999°
Altitude
1,019.169 km
Speed
7.338 km/s
Apparent Right ascension
07h 35m 55s
Apparent Declination
-35° 49' 31"
Sunlit
Object is in daylight
Visualization observer readout
Local Sidereal Time
17:35:28
Azimuth
270.159° WNW
Elevation
-65.998°
Doppler factor
1
Orbital elements
Apogee altitude
1,006.159 km
Perigee altitude
993.452 km
Semi-major axis
7,377.943 km
Eccentricity
0.00086
Inclination
86.5014°
RAAN
137.8825°
Arg. of periapsis
168.4858°
True anomaly
Unknown
Mean anomaly
191.65°
Eccentric anomaly
Unknown
Mean motion
3.42484 °/min
Orbital period
105.11 mins
BSTAR
-0.00018149
Loading maneuver chart data...
Loading SW <> Apogee altitude chart data...
Loading historical data...
Loading historical data...
Loading historical data...
Loading historical data...
Loading historical data...
Loading historical data...
Loading historical data...

HULIANWANG DIGUI-33 Visibility forecast

Observer location: undefined°, undefined°

Span
Click to sort rows by Start time (UTC) header in descending order
Start Az.
Max El. time (UTC)
Max El. Az.
Max El.
End time (UTC)
End Az.
10 mins2025-06-19 09:13:56.795Z18.454° NNE2025-06-19 09:18:56.795Z83.075° E30.929°2025-06-19 09:23:56.795Z143.868° SSE
9 mins2025-06-19 10:59:56.795Z331.051° NNW2025-06-19 11:03:56.795Z281.505° WNW27.921°2025-06-19 11:08:56.795Z220.771° SW
7 mins2025-06-19 21:03:56.795Z111.81° ESE2025-06-19 21:06:56.795Z78.374° E18.976°2025-06-19 21:10:56.795Z36.647° NE
11 mins2025-06-19 22:46:56.795Z198.88° SSW2025-06-19 22:51:56.795Z278.712° WNW40.825°2025-06-19 22:57:56.795Z354.59° N
|